Walla Walla, WA
on Wednesday, December 12, 2012

Wednesday
Previous Day Next Day
Daily Summary
 ActualAverage (KPDT)Record (KPDT)
Temperature
Mean Temperature °F 33°F  
Max Temperature 45°F 39°F 75°F (1921)
Min Temperature 33°F 27°F -23°F (1919)
Degree Days
Heating Degree Days 26 32  
Month to date heating degree days 368  
Since 1 July heating degree days 1621  
Cooling Degree Days 0 0  
Month to date cooling degree days 0  
Year to date cooling degree days 636  
Moisture
Dew Point 35°F   
Average Humidity 82    
Maximum Humidity 100    
Minimum Humidity 65    
Precipitation
Precipitation 0.00 in 0.04 in 0.66 in (2014)
Month to date precipitation 0.58  
Year to date precipitation 11.77  
Snow
Snow 0.00 in 0.20 in 3.40 in (2009)
Month to date snowfall 2.0  
Year to date snowfall 11.2  
Since 1 July snowfall 3.5  
Snow Depth in   
Wind
Wind Speed 8 mph   
Max Wind Speed 15 mph   
Max Gust Speed mph   
Visibility 8 miles   
Events Rain   

Key: T is trace of precipitation, MM is missing value
Source: NWS Daily Summary
Time(PST)TemperatureDew PointHumidity Pressure Visibility Wind DirectionWind SpeedGust SpeedPrecipitationEvents Conditions
12:53 AM 44.1°F 37.0°F 76% 29.60 in 10.0 miles South 11.5 mph - N/A   Overcast
1:53 AM 43.0°F 37.9°F 82% 29.62 in 10.0 miles SSW 8.1 mph - N/A   Overcast
2:53 AM 43.0°F 37.0°F 80% 29.63 in 10.0 miles SSW 6.9 mph - N/A   Overcast
3:53 AM 42.1°F 37.0°F 82% 29.64 in 10.0 miles SSW 6.9 mph - 0.00 in Rain Light Rain
4:37 AM 42.8°F 35.6°F 76% 29.64 in 10.0 miles SW 9.2 mph - 0.00 in   Overcast
4:53 AM 42.1°F 37.0°F 82% 29.66 in 10.0 miles WSW 8.1 mph - 0.00 in   Overcast
5:53 AM 42.1°F 36.0°F 79% 29.69 in 10.0 miles SSW 15.0 mph - 0.00 in   Overcast
6:53 AM 41.0°F 37.0°F 86% 29.72 in 10.0 miles SW 8.1 mph - N/A   Overcast
7:53 AM 41.0°F 36.0°F 82% 29.75 in 10.0 miles SSW 13.8 mph - 0.00 in   Overcast
8:01 AM 41.0°F 35.6°F 81% 29.73 in 10.0 miles SSW 9.2 mph - N/A   Overcast
8:53 AM 41.0°F 36.0°F 82% 29.77 in 10.0 miles South 6.9 mph - 0.00 in   Overcast
9:11 AM 42.8°F 35.6°F 76% 29.76 in 10.0 miles South 8.1 mph - N/A   Overcast
9:24 AM 42.8°F 35.6°F 76% 29.76 in 10.0 miles SSW 12.7 mph - N/A   Overcast
9:53 AM 43.0°F 35.1°F 74% 29.80 in 10.0 miles SW 12.7 mph - N/A   Overcast
10:27 AM 42.8°F 35.6°F 76% 29.78 in 10.0 miles SW 10.4 mph - N/A   Overcast
10:53 AM 43.0°F 33.1°F 68% 29.81 in 10.0 miles SSW 12.7 mph - N/A   Mostly Cloudy
11:53 AM 44.1°F 34.0°F 68% 29.82 in 10.0 miles SW 6.9 mph - N/A   Mostly Cloudy
12:53 PM 45.0°F 34.0°F 65% 29.82 in 10.0 miles SW 10.4 mph - N/A   Partly Cloudy
1:53 PM 44.1°F 34.0°F 68% 29.84 in 10.0 miles WSW 6.9 mph - N/A   Mostly Cloudy
2:53 PM 44.1°F 34.0°F 68% 29.86 in 10.0 miles SW 8.1 mph - N/A   Overcast
3:53 PM 42.1°F 35.1°F 76% 29.88 in 10.0 miles Calm Calm - N/A   Overcast
4:53 PM 41.0°F 34.0°F 76% 29.90 in 10.0 miles South 5.8 mph - N/A   Overcast
5:53 PM 39.9°F 32.0°F 73% 29.91 in 10.0 miles Calm Calm - N/A   Partly Cloudy
6:53 PM 39.0°F 33.1°F 79% 29.93 in 10.0 miles SSE 4.6 mph - N/A   Mostly Cloudy
7:53 PM 37.9°F 33.1°F 83% 29.95 in 10.0 miles SSW 6.9 mph - N/A   Overcast
8:53 PM 37.0°F 34.0°F 89% 29.97 in 9.0 miles SSE 6.9 mph - N/A   Mostly Cloudy
9:03 PM 37.4°F 35.6°F 93% 29.94 in 3.0 miles SSE 6.9 mph - N/A   Overcast
9:07 PM 37.4°F 35.6°F 93% 29.94 in 1.8 miles SSE 6.9 mph - N/A   Overcast
9:23 PM 35.6°F 35.6°F 100% 29.94 in 2.5 miles South 6.9 mph - N/A   Mostly Cloudy
9:30 PM 35.6°F 33.8°F 93% 29.95 in 4.0 miles SSE 5.8 mph - N/A   Mostly Cloudy
9:38 PM 35.6°F 33.8°F 93% 29.95 in 4.0 miles South 3.5 mph - N/A   Partly Cloudy
9:53 PM 36.0°F 34.0°F 93% 29.98 in 6.0 miles SSE 5.8 mph - N/A   Clear
10:36 PM 33.8°F 33.8°F 100% 29.97 in 4.0 miles Calm Calm - N/A   Mostly Cloudy
10:53 PM 34.0°F 33.1°F 96% 30.00 in 4.0 miles Calm Calm - N/A   Overcast
11:53 PM 34.0°F 32.0°F 92% 30.02 in 10.0 miles East 3.5 mph - N/A   Overcast
Moon Phase
Dec. 12 Dec. 13 Dec. 20 Dec. 28 Jan. 04
Sunrise:07:26 AM (PST) Moon Rise:06:35 AM (PST)12/12
Sunset:04:07 PM (PST) Moon Set:03:50 PM (PST)12/12

Copyright © 2014 The Weather Underground, Inc.